"read_dt","SO2 (ppb)","flags","PMT voltage (V)","lamp voltage (V)","lamp intensity (Hz)","internal temp (C)","react chamber temp (C)","sample flow (l/min)","pres (mmHg)","SO2 bkg (ppb)","SO2 coefficient"
2014-02-15 00:00:00,5398E-2,5C000490,-0724,1375,6270,023.2,045.1,0.122,771.4,01.15,0.508
2014-02-15 00:01:00,5381E-2,5C000490,-0724,1375,6138,023.2,045.1,0.122,771.4,01.15,0.508
2014-02-15 00:02:00,5331E-2,5C000490,-0724,1375,6199,023.2,045.2,0.122,771.4,01.15,0.508
2014-02-15 00:03:00,5336E-2,5C000490,-0724,1375,6222,023.2,045.1,0.122,771.4,01.15,0.508
2014-02-15 00:04:00,5387E-2,5C000490,-0724,1375,6193,023.2,045.1,0.122,771.4,01.15,0.508
2014-02-15 00:05:00,5422E-2,5C000490,-0724,1375,6398,023.2,045.2,0.122,771.5,01.15,0.508
2014-02-15 00:06:00,5351E-2,5C000490,-0724,1375,6518,023.2,045.2,0.122,771.4,01.15,0.508
2014-02-15 00:07:00,5404E-2,5C000490,-0724,1373,6661,023.2,045.2,0.122,771.4,01.15,0.508
2014-02-15 00:08:00,5370E-2,5C000490,-0724,1373,6580,023.3,045.1,0.122,771.5,01.15,0.508
2014-02-15 00:09:00,5351E-2,5C000490,-0724,1373,6587,023.2,045.1,0.122,771.5,01.15,0.508
2014-02-15 00:10:00,5314E-2,5C000490,-0724,1373,6693,023.2,045.1,0.122,771.5,01.15,0.508
2014-02-15 00:11:00,5342E-2,5C000490,-0724,1374,6625,023.2,045.1,0.122,771.5,01.15,0.508
2014-02-15 00:12:00,5331E-2,5C000490,-0724,1374,6585,023.3,045.1,0.122,771.5,01.15,0.508
2014-02-15 00:13:00,5361E-2,5C000490,-0724,1374,6548,023.3,045.1,0.121,771.5,01.15,0.508
2014-02-15 00:14:00,5452E-2,5C000490,-0724,1373,6677,023.3,045.1,0.122,771.5,01.15,0.508
2014-02-15 00:15:00,5528E-2,5C000490,-0724,1373,6623,023.3,045.1,0.121,771.5,01.15,0.508
2014-02-15 00:16:00,5526E-2,5C000490,-0724,1374,6671,023.3,045.2,0.121,771.2,01.15,0.508
2014-02-15 00:17:00,5522E-2,5C000490,-0724,1374,6547,023.3,045.1,0.121,771.2,01.15,0.508
2014-02-15 00:18:00,5496E-2,5C000490,-0724,1374,6635,023.3,045.1,0.121,771.2,01.15,0.508
2014-02-15 00:19:00,5437E-2,5C000490,-0724,1374,6631,023.3,045.1,0.121,771.2,01.15,0.508
2014-02-15 00:20:00,5449E-2,5C000490,-0724,1374,6525,023.3,045.1,0.121,771.2,01.15,0.508
2014-02-15 00:21:00,5518E-2,5C000490,-0724,1375,6449,023.3,045.1,0.121,771.3,01.15,0.508
2014-02-15 00:22:00,5498E-2,5C000490,-0724,1375,6503,023.3,045.1,0.121,771.3,01.15,0.508
2014-02-15 00:23:00,5484E-2,5C000490,-0724,1375,6530,023.3,045.1,0.121,771.3,01.15,0.508
2014-02-15 00:24:00,5461E-2,5C000490,-0724,1375,6492,023.3,045.2,0.121,771.3,01.15,0.508
2014-02-15 00:25:00,5539E-2,5C000490,-0724,1375,6353,023.3,045.2,0.121,771.2,01.15,0.508
2014-02-15 00:26:00,5488E-2,5C000490,-0724,1375,6504,023.3,045.1,0.121,771.2,01.15,0.508
2014-02-15 00:27:00,5448E-2,5C000490,-0724,1375,6466,023.3,045.1,0.121,771.1,01.15,0.508
2014-02-15 00:28:00,5476E-2,5C000490,-0724,1375,6420,023.4,045.1,0.121,771.2,01.15,0.508
2014-02-15 00:29:00,5505E-2,5C000490,-0724,1375,6414,023.3,045.2,0.121,771.2,01.15,0.508
2014-02-15 00:30:00,5448E-2,5C000490,-0724,1375,6410,023.3,045.1,0.121,771.2,01.15,0.508
2014-02-15 00:31:00,5508E-2,5C000490,-0724,1375,6417,023.4,045.2,0.121,771.2,01.15,0.508
2014-02-15 00:32:00,5455E-2,5C000490,-0724,1375,6404,023.4,045.1,0.121,771.3,01.15,0.508
2014-02-15 00:33:00,5451E-2,5C000490,-0724,1375,6379,023.4,045.1,0.121,771.1,01.15,0.508
2014-02-15 00:34:00,5472E-2,5C000490,-0724,1375,6371,023.3,045.1,0.121,771.1,01.15,0.508
2014-02-15 00:35:00,5460E-2,5C000490,-0724,1375,6260,023.4,045.1,0.121,771.2,01.15,0.508
2014-02-15 00:36:00,5469E-2,5C000490,-0724,1375,6226,023.4,045.2,0.121,771.2,01.15,0.508
2014-02-15 00:37:00,5453E-2,5C000490,-0724,1375,6349,023.4,045.1,0.121,771.2,01.15,0.508
2014-02-15 00:38:00,5469E-2,5C000490,-0724,1375,6255,023.4,045.2,0.121,771.3,01.15,0.508
2014-02-15 00:39:00,5495E-2,5C000490,-0724,1375,6247,023.4,045.2,0.121,771.1,01.15,0.508
2014-02-15 00:40:00,5468E-2,5C000490,-0724,1375,6334,023.4,045.1,0.121,771.1,01.15,0.508
2014-02-15 00:41:00,5434E-2,5C000490,-0724,1375,6292,023.4,045.1,0.121,771.2,01.15,0.508
2014-02-15 00:42:00,5445E-2,5C000490,-0724,1375,6278,023.4,045.1,0.121,771.2,01.15,0.508
2014-02-15 00:43:00,5449E-2,5C000490,-0724,1375,6320,023.4,045.1,0.121,771.3,01.15,0.508
2014-02-15 00:44:00,5463E-2,5C000490,-0724,1375,6346,023.4,045.2,0.121,771.3,01.15,0.508
2014-02-15 00:45:00,5472E-2,5C000490,-0724,1375,6260,023.4,045.2,0.121,771.1,01.15,0.508
2014-02-15 00:46:00,5413E-2,5C000490,-0724,1375,6289,023.4,045.2,0.121,771.2,01.15,0.508
2014-02-15 00:47:00,5438E-2,5C000490,-0724,1375,6223,023.4,045.2,0.121,771.2,01.15,0.508
2014-02-15 00:48:00,5425E-2,5C000490,-0724,1375,6098,023.4,045.1,0.121,771.2,01.15,0.508
2014-02-15 00:49:00,5421E-2,5C000490,-0724,1375,6084,023.4,045.1,0.121,771.2,01.15,0.508
2014-02-15 00:50:00,5465E-2,5C000490,-0724,1375,6061,023.4,045.2,0.121,771.3,01.15,0.508
2014-02-15 00:51:00,5437E-2,5C000490,-0724,1375,6100,023.4,045.1,0.121,771.3,01.15,0.508
2014-02-15 00:52:00,5374E-2,5C000490,-0724,1375,6105,023.4,045.1,0.121,771.1,01.15,0.508
2014-02-15 00:53:00,5449E-2,5C000490,-0724,1375,6048,023.4,045.2,0.121,771.2,01.15,0.508
2014-02-15 00:54:00,5454E-2,5C000490,-0724,1375,6093,023.4,045.2,0.121,771.2,01.15,0.508
2014-02-15 00:55:00,5420E-2,5C000490,-0724,1375,6065,023.4,045.1,0.121,771.2,01.15,0.508
2014-02-15 00:56:00,5375E-2,5C000490,-0724,1375,6032,023.4,045.1,0.121,771.1,01.15,0.508
2014-02-15 00:57:00,5410E-2,5C000490,-0724,1375,6047,023.4,045.2,0.121,771.1,01.15,0.508
2014-02-15 00:58:00,5407E-2,5C000490,-0724,1375,5960,023.5,045.2,0.120,771.1,01.15,0.508
2014-02-15 00:59:00,5350E-2,5C000490,-0724,1375,6075,023.4,045.1,0.121,771.2,01.15,0.508
2014-02-15 01:00:00,5300E-2,5C000490,-0724,1375,6008,023.5,045.2,0.121,771.2,01.15,0.508
2014-02-15 01:01:00,5391E-2,5C000490,-0724,1375,6006,023.5,045.2,0.121,771.3,01.15,0.508
2014-02-15 01:02:00,5391E-2,5C000490,-0724,1375,6001,023.5,045.1,0.121,771.3,01.15,0.508
2014-02-15 01:03:00,5390E-2,5C000490,-0724,1375,5994,023.5,045.2,0.121,771.4,01.15,0.508
2014-02-15 01:04:00,5379E-2,5C000490,-0724,1375,5991,023.5,045.1,0.121,771.2,01.15,0.508
2014-02-15 01:05:00,5322E-2,5C000490,-0724,1375,5983,023.5,045.2,0.121,771.2,01.15,0.508
2014-02-15 01:06:00,5383E-2,5C000490,-0724,1375,5997,023.5,045.1,0.121,771.3,01.15,0.508
2014-02-15 01:07:00,5373E-2,5C000490,-0724,1375,5887,023.5,045.2,0.121,771.4,01.15,0.508
2014-02-15 01:08:00,5349E-2,5C000490,-0724,1375,5970,023.5,045.2,0.121,771.4,01.15,0.508
2014-02-15 01:09:00,5374E-2,5C000490,-0724,1375,5926,023.5,045.1,0.121,771.3,01.15,0.508
2014-02-15 01:10:00,5373E-2,5C000490,-0724,1375,5903,023.5,045.1,0.120,771.3,01.15,0.508
2014-02-15 01:11:00,5368E-2,5C000490,-0724,1375,5965,023.5,045.1,0.120,771.2,01.15,0.508
2014-02-15 01:12:00,5378E-2,5C000490,-0724,1375,5954,023.5,045.2,0.120,771.3,01.15,0.508
2014-02-15 01:13:00,5318E-2,5C000490,-0724,1375,5903,023.5,045.2,0.121,771.2,01.15,0.508
2014-02-15 01:14:00,5394E-2,5C000490,-0724,1375,5874,023.5,045.2,0.120,771.3,01.15,0.508
2014-02-15 01:15:00,5324E-2,5C000490,-0724,1375,5959,023.6,045.2,0.120,771.3,01.15,0.508
2014-02-15 01:16:00,5375E-2,5C000490,-0724,1375,5972,023.5,045.2,0.120,771.2,01.15,0.508
2014-02-15 01:17:00,5356E-2,5C000490,-0724,1375,5970,023.5,045.2,0.120,771.2,01.15,0.508
2014-02-15 01:18:00,5370E-2,5C000490,-0724,1375,5952,023.6,045.2,0.120,771.3,01.15,0.508
2014-02-15 01:19:00,5358E-2,5C000490,-0724,1375,5942,023.6,045.2,0.120,771.2,01.15,0.508
2014-02-15 01:20:00,5427E-2,5C000490,-0724,1375,5965,023.6,045.2,0.120,771.3,01.15,0.508
2014-02-15 01:21:00,5341E-2,5C000490,-0724,1375,5952,023.6,045.1,0.120,771.4,01.15,0.508
2014-02-15 01:22:00,5386E-2,5C000490,-0724,1375,5954,023.6,045.2,0.120,771.5,01.15,0.508
2014-02-15 01:23:00,5357E-2,5C000490,-0724,1375,5921,023.6,045.2,0.120,771.5,01.15,0.508
2014-02-15 01:24:00,5410E-2,5C000490,-0724,1375,5994,023.6,045.2,0.120,771.4,01.15,0.508
2014-02-15 01:25:00,5396E-2,5C000490,-0724,1375,5981,023.6,045.1,0.120,771.4,01.15,0.508
2014-02-15 01:26:00,5432E-2,5C000490,-0724,1375,5970,023.6,045.2,0.120,771.4,01.15,0.508
2014-02-15 01:27:00,5364E-2,5C000490,-0724,1375,5887,023.6,045.2,0.120,771.4,01.15,0.508
2014-02-15 01:28:00,5396E-2,5C000490,-0724,1375,5921,023.6,045.2,0.120,771.3,01.15,0.508
2014-02-15 01:29:00,5335E-2,5C000490,-0724,1375,5953,023.6,045.1,0.120,771.4,01.15,0.508
2014-02-15 01:30:00,5366E-2,5C000490,-0724,1375,5964,023.6,045.1,0.120,771.5,01.15,0.508
2014-02-15 01:31:00,5353E-2,5C000490,-0724,1375,5916,023.6,045.2,0.120,771.5,01.15,0.508
2014-02-15 01:32:00,5387E-2,5C000490,-0724,1375,5963,023.6,045.2,0.120,771.5,01.15,0.508
2014-02-15 01:33:00,5390E-2,5C000490,-0724,1375,5953,023.6,045.2,0.120,771.3,01.15,0.508
2014-02-15 01:34:00,5436E-2,5C000490,-0724,1375,5925,023.6,045.2,0.120,771.4,01.15,0.508
2014-02-15 01:35:00,5401E-2,5C000490,-0724,1375,5950,023.6,045.2,0.120,771.3,01.15,0.508
2014-02-15 01:36:00,5345E-2,5C000490,-0724,1375,5930,023.6,045.1,0.120,771.4,01.15,0.508
2014-02-15 01:37:00,5414E-2,5C000490,-0724,1375,5975,023.6,045.1,0.120,771.4,01.15,0.508
2014-02-15 01:38:00,5349E-2,5C000490,-0724,1375,5965,023.6,045.2,0.120,771.5,01.15,0.508
2014-02-15 01:39:00,5404E-2,5C000490,-0724,1375,5882,023.7,045.2,0.120,771.5,01.15,0.508
2014-02-15 01:40:00,5495E-2,5C000490,-0724,1375,5946,023.6,045.2,0.120,771.3,01.15,0.508
2014-02-15 01:41:00,5456E-2,5C000490,-0724,1375,5950,023.7,045.2,0.120,771.3,01.15,0.508
2014-02-15 01:42:00,5368E-2,5C000490,-0724,1375,5896,023.7,045.1,0.120,771.4,01.15,0.508
2014-02-15 01:43:00,5395E-2,5C000490,-0724,1375,5899,023.7,045.2,0.120,771.4,01.15,0.508
2014-02-15 01:44:00,5454E-2,5C000490,-0724,1375,5955,023.7,045.2,0.120,771.4,01.15,0.508
2014-02-15 01:45:00,5368E-2,5C000490,-0724,1375,6002,023.7,045.2,0.120,771.5,01.15,0.508
2014-02-15 01:46:00,5363E-2,5C000490,-0724,1375,5948,023.7,045.2,0.120,771.3,01.15,0.508
2014-02-15 01:47:00,5394E-2,5C000490,-0724,1375,6009,023.7,045.2,0.120,771.2,01.15,0.508
2014-02-15 01:48:00,5420E-2,5C000490,-0724,1375,6018,023.7,045.2,0.120,771.3,01.15,0.508
2014-02-15 01:49:00,5398E-2,5C000490,-0724,1375,5899,023.7,045.2,0.120,771.4,01.15,0.508
2014-02-15 01:50:00,5403E-2,5C000490,-0724,1375,5895,023.7,045.2,0.120,771.5,01.15,0.508
2014-02-15 01:51:00,5393E-2,5C000490,-0724,1375,5883,023.7,045.2,0.120,771.4,01.15,0.508
2014-02-15 01:52:00,5434E-2,5C000490,-0724,1375,5892,023.7,045.2,0.120,771.5,01.15,0.508
2014-02-15 01:53:00,5371E-2,5C000490,-0724,1375,5880,023.7,045.1,0.120,771.5,01.15,0.508
2014-02-15 01:54:00,5356E-2,5C000490,-0724,1375,5826,023.7,045.2,0.120,771.5,01.15,0.508
2014-02-15 01:55:00,5368E-2,5C000490,-0724,1375,5888,023.7,045.2,0.120,771.4,01.15,0.508
2014-02-15 01:56:00,5325E-2,5C000490,-0724,1375,5898,023.7,045.2,0.120,771.4,01.15,0.508
2014-02-15 01:57:00,5389E-2,5C000490,-0724,1375,5956,023.8,045.1,0.119,771.5,01.15,0.508
2014-02-15 01:58:00,5358E-2,5C000490,-0724,1375,5796,023.7,045.1,0.120,771.5,01.15,0.508
2014-02-15 01:59:00,5368E-2,5C000490,-0724,1375,5924,023.7,045.2,0.119,771.5,01.15,0.508
2014-02-15 02:00:00,5357E-2,5C000490,-0724,1375,5855,023.7,045.1,0.119,771.5,01.15,0.508
2014-02-15 02:01:00,5346E-2,5C000490,-0724,1375,5743,023.8,045.2,0.119,771.5,01.15,0.508
2014-02-15 02:02:00,5381E-2,5C000490,-0724,1375,5825,023.8,045.2,0.120,771.4,01.15,0.508
2014-02-15 02:03:00,5401E-2,5C000490,-0724,1375,5885,023.8,045.2,0.119,771.4,01.15,0.508
2014-02-15 02:04:00,5424E-2,5C000490,-0724,1375,5780,023.8,045.2,0.119,771.5,01.15,0.508
2014-02-15 02:05:00,5374E-2,5C000490,-0724,1375,5829,023.8,045.2,0.119,771.4,01.15,0.508
2014-02-15 02:06:00,5358E-2,5C000490,-0724,1375,5822,023.8,045.1,0.119,771.4,01.15,0.508
2014-02-15 02:07:00,5397E-2,5C000490,-0724,1375,5838,023.8,045.1,0.119,771.6,01.15,0.508
2014-02-15 02:08:00,5400E-2,5C000490,-0724,1375,5742,023.8,045.2,0.119,771.4,01.15,0.508
2014-02-15 02:09:00,5422E-2,5C000490,-0724,1375,5755,023.8,045.2,0.119,771.4,01.15,0.508
2014-02-15 02:10:00,5417E-2,5C000490,-0724,1375,5708,023.8,045.2,0.119,771.4,01.15,0.508
2014-02-15 02:11:00,5404E-2,5C000490,-0724,1375,5751,023.8,045.2,0.119,771.5,01.15,0.508
2014-02-15 02:12:00,5393E-2,5C000490,-0724,1375,5746,023.8,045.2,0.119,771.5,01.15,0.508
2014-02-15 02:13:00,5421E-2,5C000490,-0724,1375,5734,023.8,045.2,0.119,771.5,01.15,0.508
2014-02-15 02:14:00,5476E-2,5C000490,-0724,1375,5792,023.8,045.2,0.119,771.3,01.15,0.508
2014-02-15 02:15:00,5424E-2,5C000490,-0724,1375,5641,023.8,045.1,0.119,771.4,01.15,0.508
2014-02-15 02:16:00,5428E-2,5C000490,-0724,1375,5768,023.8,045.1,0.119,771.4,01.15,0.508
2014-02-15 02:17:00,5440E-2,5C000490,-0724,1375,5827,023.8,045.2,0.119,771.4,01.15,0.508
2014-02-15 02:18:00,5490E-2,5C000490,-0724,1375,5870,023.9,045.2,0.119,771.3,01.15,0.508
2014-02-15 02:19:00,5431E-2,5C000490,-0724,1375,5783,023.9,045.2,0.119,771.3,01.15,0.508
2014-02-15 02:20:00,5450E-2,5C000490,-0724,1375,5751,023.8,045.2,0.119,771.3,01.15,0.508
2014-02-15 02:21:00,5464E-2,5C000490,-0724,1375,5783,023.9,045.2,0.119,771.4,01.15,0.508
2014-02-15 02:22:00,5448E-2,5C000490,-0724,1375,5816,023.9,045.2,0.119,771.3,01.15,0.508
2014-02-15 02:23:00,5426E-2,5C000490,-0724,1375,5730,023.9,045.2,0.119,771.5,01.15,0.508
2014-02-15 02:24:00,5448E-2,5C000490,-0724,1375,5755,023.9,045.2,0.119,771.5,01.15,0.508
2014-02-15 02:25:00,5427E-2,5C000490,-0724,1375,5737,023.9,045.2,0.119,771.5,01.15,0.508
2014-02-15 02:26:00,5485E-2,5C000490,-0724,1375,5694,023.9,045.2,0.119,771.5,01.15,0.508
2014-02-15 02:27:00,5402E-2,5C000490,-0724,1375,5685,023.9,045.2,0.119,771.4,01.15,0.508
2014-02-15 02:28:00,5394E-2,5C000490,-0724,1375,5777,023.9,045.2,0.119,771.3,01.15,0.508
2014-02-15 02:29:00,5431E-2,5C000490,-0724,1375,5705,023.9,045.1,0.119,771.4,01.15,0.508
2014-02-15 02:30:00,5403E-2,5C000490,-0724,1375,5714,023.9,045.2,0.119,771.5,01.15,0.508
2014-02-15 02:31:00,5426E-2,5C000490,-0724,1375,5711,023.9,045.2,0.119,771.5,01.15,0.508
2014-02-15 02:32:00,5493E-2,5C000490,-0724,1375,5693,023.9,045.2,0.119,771.5,01.15,0.508
2014-02-15 02:33:00,5488E-2,5C000490,-0724,1375,5766,023.9,045.2,0.119,771.5,01.15,0.508
2014-02-15 02:34:00,5441E-2,5C000490,-0724,1375,5705,023.9,045.2,0.119,771.5,01.15,0.508
2014-02-15 02:35:00,5468E-2,5C000490,-0724,1375,5725,023.9,045.2,0.119,771.4,01.15,0.508
2014-02-15 02:36:00,5432E-2,5C000490,-0724,1375,5728,023.9,045.2,0.119,771.4,01.15,0.508
2014-02-15 02:37:00,5449E-2,5C000490,-0724,1375,5560,023.9,045.2,0.119,771.3,01.15,0.508
2014-02-15 02:38:00,5499E-2,5C000490,-0724,1375,5701,024.0,045.2,0.119,771.4,01.15,0.508
2014-02-15 02:39:00,5459E-2,5C000490,-0724,1375,5673,024.0,045.2,0.119,771.3,01.15,0.508
2014-02-15 02:40:00,5467E-2,5C000490,-0724,1375,5646,024.0,045.2,0.119,771.2,01.15,0.508
2014-02-15 02:41:00,5461E-2,5C000490,-0724,1375,5663,024.0,045.2,0.119,771.3,01.15,0.508
2014-02-15 02:42:00,5444E-2,5C000490,-0724,1375,5679,024.0,045.2,0.119,771.3,01.15,0.508
2014-02-15 02:43:00,5336E-2,5C000490,-0724,1375,5564,024.0,045.2,0.119,771.4,01.15,0.508
2014-02-15 02:44:00,5411E-2,5C000490,-0724,1375,5648,024.0,045.2,0.119,771.2,01.15,0.508
2014-02-15 02:45:00,5426E-2,5C000490,-0724,1375,5628,024.0,045.2,0.119,771.2,01.15,0.508
2014-02-15 02:46:00,5448E-2,5C000490,-0724,1375,5692,024.0,045.2,0.119,771.3,01.15,0.508
2014-02-15 02:47:00,5354E-2,5C000490,-0724,1375,5670,024.0,045.2,0.119,771.2,01.15,0.508
2014-02-15 02:48:00,5423E-2,5C000490,-0724,1375,5600,024.0,045.1,0.119,771.3,01.15,0.508
2014-02-15 02:49:00,5467E-2,5C000490,-0724,1375,5620,024.0,045.1,0.119,771.4,01.15,0.508
2014-02-15 02:50:00,5448E-2,5C000490,-0724,1375,5626,024.0,045.2,0.119,771.2,01.15,0.508
2014-02-15 02:51:00,5407E-2,5C000490,-0724,1375,5686,024.0,045.2,0.119,771.2,01.15,0.508
2014-02-15 02:52:00,5399E-2,5C000490,-0724,1375,5633,024.0,045.2,0.119,771.2,01.15,0.508
2014-02-15 02:53:00,5375E-2,5C000490,-0724,1375,5651,024.0,045.2,0.118,771.3,01.15,0.508
2014-02-15 02:54:00,5400E-2,5C000490,-0724,1375,5542,024.0,045.2,0.119,771.1,01.15,0.508
2014-02-15 02:55:00,5381E-2,5C000490,-0724,1375,5642,024.0,045.2,0.118,771.1,01.15,0.508
2014-02-15 02:56:00,5404E-2,5C000490,-0724,1375,5581,024.0,045.1,0.118,771.2,01.15,0.508
2014-02-15 02:57:00,5404E-2,5C000490,-0724,1375,5613,024.1,045.2,0.118,771.2,01.15,0.508
2014-02-15 02:58:00,5367E-2,5C000490,-0724,1375,5592,024.1,045.2,0.118,771.3,01.15,0.508
2014-02-15 02:59:00,5344E-2,5C000490,-0724,1375,5539,024.1,045.2,0.118,771.1,01.15,0.508
2014-02-15 03:00:00,5348E-2,5C000490,-0724,1375,5509,024.1,045.2,0.118,771.1,01.15,0.508
2014-02-15 03:01:00,5361E-2,5C000490,-0724,1375,5637,024.1,045.2,0.118,771.1,01.15,0.508
2014-02-15 03:02:00,5427E-2,5C000490,-0724,1375,5545,024.1,045.1,0.118,771.2,01.15,0.508
2014-02-15 03:03:00,5434E-2,5C000490,-0724,1375,5536,024.1,045.2,0.118,771.2,01.15,0.508
2014-02-15 03:04:00,5389E-2,5C000490,-0724,1375,5582,024.1,045.2,0.118,771.3,01.15,0.508
2014-02-15 03:05:00,5451E-2,5C000490,-0724,1375,5521,024.1,045.2,0.118,771.3,01.15,0.508
2014-02-15 03:06:00,5468E-2,5C000490,-0724,1375,5553,024.1,045.2,0.118,771.3,01.15,0.508
2014-02-15 03:07:00,5422E-2,5C000490,-0724,1375,5580,024.1,045.2,0.118,771.3,01.15,0.508
2014-02-15 03:08:00,5423E-2,5C000490,-0724,1375,5631,024.1,045.2,0.118,771.2,01.15,0.508
2014-02-15 03:09:00,5436E-2,5C000490,-0724,1375,5640,024.1,045.2,0.118,771.2,01.15,0.508
2014-02-15 03:10:00,5484E-2,5C000490,-0724,1375,5602,024.1,045.2,0.118,771.2,01.15,0.508
2014-02-15 03:11:00,5390E-2,5C000490,-0724,1375,5660,024.1,045.2,0.118,771.3,01.15,0.508
2014-02-15 03:12:00,5389E-2,5C000490,-0724,1375,5584,024.2,045.2,0.118,771.3,01.15,0.508
2014-02-15 03:13:00,5374E-2,5C000490,-0724,1375,5698,024.1,045.2,0.118,771.2,01.15,0.508
2014-02-15 03:14:00,5358E-2,5C000490,-0724,1375,5666,024.1,045.2,0.118,771.3,01.15,0.508
2014-02-15 03:15:00,5457E-2,5C000490,-0724,1375,5572,024.2,045.2,0.121,771.2,01.15,0.508
2014-02-15 03:16:00,5397E-2,5C000490,-0724,1375,5630,024.2,045.2,0.141,771.2,01.15,0.508
2014-02-15 03:17:00,5405E-2,5C000490,-0724,1375,5586,024.2,045.2,0.113,771.2,01.15,0.508
2014-02-15 03:18:00,5382E-2,5C000490,-0724,1375,5628,024.2,045.2,0.000,771.2,01.15,0.508
2014-02-15 03:19:00,5475E-2,5C000490,-0724,1375,5582,024.2,045.2,0.000,771.2,01.15,0.508
2014-02-15 03:20:00,5411E-2,5C000490,-0724,1375,5581,024.2,045.2,0.000,771.2,01.15,0.508
2014-02-15 03:21:00,5442E-2,5C000490,-0724,1375,5633,024.2,045.2,0.000,771.0,01.15,0.508
2014-02-15 03:22:00,5466E-2,5C000490,-0724,1375,5637,024.2,045.2,0.000,771.1,01.15,0.508
2014-02-15 03:23:00,5484E-2,5C000490,-0724,1375,5645,024.2,045.2,0.000,771.2,01.15,0.508
2014-02-15 03:24:00,5449E-2,5C000480,-0724,1294,11957,024.2,045.2,0.000,771.2,01.15,0.508
2014-02-15 03:25:00,5554E-2,5C000410,-0724,1074,9723,024.2,045.2,0.000,771.2,01.15,0.508
2014-02-15 03:26:00,5132E-2,5C000410,-0724,1076,9662,024.2,045.2,0.000,771.2,01.15,0.508
2014-02-15 03:27:00,5177E-2,5C000410,-0724,1084,9553,024.2,045.2,0.000,771.2,01.15,0.508
2014-02-15 03:28:00,5190E-2,5C000410,-0724,1090,9611,024.2,045.2,0.000,771.3,01.15,0.508
2014-02-15 03:29:00,5215E-2,5C000410,-0724,1095,9511,024.2,045.2,0.000,771.3,01.15,0.508
2014-02-15 03:30:00,5269E-2,5C000410,-0724,1100,9442,024.2,045.2,0.000,771.3,01.15,0.508
2014-02-15 03:31:00,5325E-2,5C000410,-0724,1105,9475,024.2,045.2,0.000,771.3,01.15,0.508
2014-02-15 03:32:00,5245E-2,5C000410,-0724,1107,9457,024.2,045.2,0.000,771.2,01.15,0.508
2014-02-15 03:33:00,5309E-2,5C000410,-0724,1111,9477,024.2,045.2,0.000,771.2,01.15,0.508
2014-02-15 03:34:00,5265E-2,5C000410,-0724,1115,9337,024.3,045.2,0.000,771.2,01.15,0.508
2014-02-15 03:35:00,5282E-2,5C000410,-0724,1118,9327,024.3,045.2,0.000,771.2,01.15,0.508
2014-02-15 03:36:00,5301E-2,5C000410,-0724,1121,9288,024.3,045.2,0.000,771.2,01.15,0.508
2014-02-15 03:37:00,5318E-2,5C000410,-0724,1123,9312,024.3,045.2,0.000,771.3,01.15,0.508
2014-02-15 03:38:00,5323E-2,5C000410,-0724,1126,9254,024.3,045.2,0.000,771.3,01.15,0.508
2014-02-15 03:39:00,5304E-2,5C000410,-0724,1127,9356,024.3,045.2,0.000,771.4,01.15,0.508
2014-02-15 03:40:00,5307E-2,5C000410,-0724,1129,9297,024.3,045.2,0.000,771.2,01.15,0.508
2014-02-15 03:41:00,5284E-2,5C000410,-0724,1130,9307,024.3,045.2,0.000,771.2,01.15,0.508
2014-02-15 03:42:00,5275E-2,5C000410,-0724,1132,9258,024.3,045.2,0.000,771.2,01.15,0.508
2014-02-15 03:43:00,5326E-2,5C000410,-0724,1134,9093,024.3,045.2,0.000,771.3,01.15,0.508
2014-02-15 03:44:00,5288E-2,5C000410,-0724,1135,9178,024.3,045.2,0.000,771.3,01.15,0.508
2014-02-15 03:45:00,5348E-2,5C000410,-0724,1137,9148,024.3,045.2,0.000,771.3,01.15,0.508
2014-02-15 03:46:00,5329E-2,5C000410,-0724,1139,9191,024.3,045.2,0.000,771.3,01.15,0.508
2014-02-15 03:47:00,5308E-2,5C000410,-0724,1140,9173,024.3,045.2,0.000,771.2,01.15,0.508
2014-02-15 03:48:00,5362E-2,5C000410,-0724,1144,9127,024.3,045.2,0.000,771.2,01.15,0.508
2014-02-15 03:49:00,5361E-2,5C000410,-0724,1144,8953,024.4,045.2,0.000,771.2,01.15,0.508
2014-02-15 03:50:00,5343E-2,5C000410,-0724,1146,8999,024.3,045.2,0.000,771.2,01.15,0.508
2014-02-15 03:51:00,5426E-2,5C000410,-0724,1147,9020,024.4,045.2,0.000,771.3,01.15,0.508
2014-02-15 03:52:00,5362E-2,5C000410,-0724,1148,8952,024.4,045.2,0.000,771.1,01.15,0.508
2014-02-15 03:53:00,5370E-2,5C000410,-0724,1149,9032,024.4,045.2,0.000,771.1,01.15,0.508
2014-02-15 03:54:00,5430E-2,5C000410,-0724,1150,9027,024.4,045.2,0.000,771.2,01.15,0.508
2014-02-15 03:55:00,5346E-2,5C000410,-0724,1152,9051,024.4,045.2,0.000,771.2,01.15,0.508
2014-02-15 03:56:00,5328E-2,5C000410,-0724,1153,8904,024.4,045.2,0.000,771.2,01.15,0.508
2014-02-15 03:57:00,5375E-2,5C000410,-0724,1154,8991,024.4,045.2,0.000,771.2,01.15,0.508
2014-02-15 03:58:00,5381E-2,5C000410,-0724,1154,8995,024.4,045.2,0.000,771.2,01.15,0.508
2014-02-15 03:59:00,5380E-2,5C000410,-0724,1154,8937,024.4,045.2,0.000,771.0,01.15,0.508
2014-02-15 04:00:00,5376E-2,5C000410,-0724,1155,8936,024.4,045.2,0.000,771.1,01.15,0.508
2014-02-15 04:01:00,5382E-2,5C000410,-0724,1157,8964,024.4,045.2,0.000,771.2,01.15,0.508
2014-02-15 04:02:00,5409E-2,5C000410,-0724,1159,8979,024.4,045.2,0.000,771.2,01.15,0.508
2014-02-15 04:03:00,5332E-2,5C000410,-0724,1159,8974,024.4,045.2,0.000,771.2,01.15,0.508
2014-02-15 04:04:00,5344E-2,5C000410,-0724,1160,8999,024.4,045.2,0.000,771.2,01.15,0.508
2014-02-15 04:05:00,5338E-2,5C000410,-0724,1161,8987,024.4,045.2,0.000,771.0,01.15,0.508
2014-02-15 04:06:00,5394E-2,5C000410,-0724,1162,8855,024.4,045.2,0.000,771.0,01.15,0.508
2014-02-15 04:07:00,5394E-2,5C000410,-0724,1163,8956,024.4,045.2,0.000,771.1,01.15,0.508
2014-02-15 04:08:00,5352E-2,5C000410,-0724,1165,8963,024.4,045.2,0.000,771.1,01.15,0.508
2014-02-15 04:09:00,5370E-2,5C000410,-0724,1166,8812,024.4,045.2,0.000,771.2,01.15,0.508
2014-02-15 04:10:00,5392E-2,5C000410,-0724,1167,8904,024.4,045.2,0.000,771.1,01.15,0.508
2014-02-15 04:11:00,5455E-2,5C000410,-0724,1166,8875,024.4,045.2,0.000,771.2,01.15,0.508
2014-02-15 04:12:00,5435E-2,5C000410,-0724,1167,8808,024.5,045.2,0.000,771.2,01.15,0.508
2014-02-15 04:13:00,5471E-2,5C000410,-0724,1168,8929,024.4,045.2,0.000,771.0,01.15,0.508
2014-02-15 04:14:00,5410E-2,5C000410,-0724,1170,8857,024.5,045.2,0.000,771.0,01.15,0.508
2014-02-15 04:15:00,5447E-2,5C000410,-0724,1171,8748,024.5,045.2,0.000,771.0,01.15,0.508
2014-02-15 04:16:00,5350E-2,5C000410,-0724,1172,8670,024.5,045.2,0.000,771.1,01.15,0.508
2014-02-15 04:17:00,5427E-2,5C000410,-0724,1172,8885,024.5,045.2,0.000,771.2,01.15,0.508
2014-02-15 04:18:00,5393E-2,5C000410,-0724,1173,8772,024.5,045.2,0.000,771.2,01.15,0.508
2014-02-15 04:19:00,5438E-2,5C000410,-0724,1174,8787,024.5,045.2,0.000,771.1,01.15,0.508
2014-02-15 04:20:00,5405E-2,5C000410,-0724,1176,8781,024.5,045.2,0.000,771.2,01.15,0.508
2014-02-15 04:21:00,5439E-2,5C000410,-0724,1177,8849,024.5,045.2,0.000,771.2,01.15,0.508
2014-02-15 04:22:00,5434E-2,5C000410,-0724,1177,8647,024.5,045.2,0.000,771.2,01.15,0.508
2014-02-15 04:23:00,5460E-2,5C000410,-0724,1178,8744,024.5,045.2,0.000,771.2,01.15,0.508